Weather History for Aurora, IL

Change the Weather History Date:

Thursday, February 7, 2013

  Actual Average Record
Temperature  
Mean Temperature 31 °F 22 °F  
Max Temperature 34 °F 31 °F 54 °F (2009)
Min Temperature 28 °F 14 °F -16 °F (2007)
Degree Days  
Heating Degree Days 34 43  
Month to date heating degree days 338 303  
Since 1 July heating degree days 4025 4320  
Cooling Degree Days 0 0  
Month to date cooling degree days 0 0  
Year to date cooling degree days 0 0  
Moisture  
Dew Point 31 °F    
Average Humidity 91    
Maximum Humidity 100    
Minimum Humidity 82    
Precipitation  
Precipitation 0.88 in 0.04 in 0.88 in (2013)
Month to date precipitation 0.89 0.29  
Year to date precipitation 4.03 1.76  
Sea Level Pressure  
Sea Level Pressure 29.96 in    
Wind  
Wind Speed 8 mph (East)    
Max Wind Speed 24 mph    
Max Gust Speed 29 mph    
Visibility 2 miles    
Events Fog , Rain , Snow    
T = Trace of Precipitation, MM = Missing Value Source: NWS Daily Summary

Daily Weather History Graph

Daily Weather History Graph

Search for Another Location

Airport:

Trip Planner

Search our weather history database for the weather conditions in past years. The results will help you decide how hot, cold, wet, or windy it might be!

Date:

Astronomy

Feb. 07, 2013 Rise Set
Actual Time 6:59 AM CST 5:17 PM CST
Civil Twilight 6:30 AM CST 5:46 PM CST
Nautical Twilight 5:57 AM CST 6:19 PM CST
Astronomical Twilight 5:24 AM CST 6:51 PM CST
Moon 4:40 AM CST (2/7) 2:40 PM CST (2/7)
Length of Visible Light 11h 16m
Length of Day
10h 18m
Waning Crescent, 9% of the Moon is Illuminated
Feb 7
Waning Crescent
Feb 10
New
Feb 17
First Quarter
Feb 25
Full
Mar 4
Last Quarter

Hourly Weather History & Observations

Time (CST) Temp. Windchill Dew Point Humidity Pressure Visibility Wind Dir Wind Speed Gust Speed Precip Events Conditions
12:52 AM 33.1 °F 25.5 °F 28.9 °F 85% 30.10 in 6.0 mi SE 9.2 mph - N/A   Clear
1:52 AM 33.1 °F 28.7 °F 28.9 °F 85% 30.12 in 6.0 mi SSE 4.6 mph - N/A   Mostly Cloudy
2:52 AM 32.0 °F 25.6 °F 28.9 °F 88% 30.10 in 5.0 mi SE 6.9 mph - N/A   Overcast
3:52 AM 32.0 °F 24.8 °F 30.0 °F 92% 30.08 in 4.0 mi SE 8.1 mph - 0.04 in   Overcast
4:52 AM 33.1 °F 24.4 °F 30.9 °F 92% 30.08 in 4.0 mi SE 11.5 mph - 0.05 in   Overcast
5:26 AM 32.0 °F 24.2 °F 30.2 °F 93% 30.05 in 4.0 mi SE 9.2 mph - 0.01 in Rain Light Freezing Rain
5:52 AM 32.0 °F 23.6 °F 30.9 °F 96% 30.07 in 3.0 mi SE 10.4 mph - 0.02 in Rain Light Freezing Rain
5:55 AM 32.0 °F 24.2 °F 30.2 °F 93% 30.04 in 2.5 mi SE 9.2 mph - 0.00 in Snow Light Snow
6:26 AM 32.0 °F 24.2 °F 30.2 °F 93% 30.04 in 3.0 mi SE 9.2 mph - 0.02 in   Overcast
6:40 AM 32.0 °F 24.8 °F 30.2 °F 93% 30.03 in 3.0 mi SE 8.1 mph - 0.03 in Rain Light Freezing Rain
6:52 AM 32.0 °F 24.2 °F 30.9 °F 96% 30.05 in 3.0 mi SE 9.2 mph - 0.03 in Rain Light Freezing Rain
7:30 AM 32.0 °F 23.6 °F 30.2 °F 93% 30.02 in 2.5 mi SE 10.4 mph - 0.01 in Rain Light Freezing Rain
7:37 AM 32.0 °F 23.6 °F 30.2 °F 93% 30.02 in 2.0 mi SE 10.4 mph - 0.01 in Rain Light Freezing Rain
7:52 AM 33.1 °F 25.5 °F 30.9 °F 92% 30.04 in 2.5 mi SE 9.2 mph - 0.01 in   Overcast
8:52 AM 33.1 °F 27.7 °F 30.9 °F 92% 30.04 in 2.0 mi SE 5.8 mph - 0.01 in   Overcast
9:33 AM 33.8 °F 27.7 °F 30.2 °F 87% 30.00 in 2.0 mi SE 6.9 mph - 0.01 in Rain Light Freezing Rain
9:41 AM 33.8 °F 27.0 °F 30.2 °F 87% 30.00 in 1.5 mi SE 8.1 mph - 0.01 in Rain Light Freezing Rain
9:52 AM 33.1 °F 26.9 °F 30.9 °F 92% 30.01 in 1.5 mi SE 6.9 mph - 0.02 in Rain Light Freezing Rain
9:59 AM 33.8 °F 27.0 °F 32.0 °F 93% 30.00 in 2.0 mi SE 8.1 mph - 0.00 in Rain Light Freezing Rain
10:19 AM 33.8 °F 27.7 °F 32.0 °F 93% 29.99 in 1.8 mi SE 6.9 mph - 0.02 in Rain Light Rain
10:33 AM 33.8 °F 28.6 °F 32.0 °F 93% 30.00 in 1.5 mi SE 5.8 mph - 0.05 in Rain Rain
10:52 AM 33.1 °F 28.7 °F 32.0 °F 96% 30.02 in 1.5 mi ESE 4.6 mph - 0.09 in Rain Light Rain
11:52 AM 33.1 °F 26.9 °F 32.0 °F 96% 29.98 in 1.2 mi ESE 6.9 mph - 0.09 in Rain Light Rain
12:19 PM 33.8 °F 27.0 °F 33.8 °F 100% 29.93 in 1.2 mi East 8.1 mph - 0.03 in Rain Light Rain
12:52 PM 34.0 °F 29.8 °F 33.1 °F 96% 29.95 in 1.2 mi ESE 4.6 mph - 0.08 in Rain Light Rain
1:37 PM 33.8 °F 29.6 °F 33.8 °F 100% 29.90 in 0.8 mi East 4.6 mph - 0.09 in Rain Rain
1:52 PM 34.0 °F 31.0 °F 33.1 °F 96% 29.92 in 0.8 mi East 3.5 mph - 0.12 in Rain Light Rain
2:00 PM 33.8 °F 29.6 °F 33.8 °F 100% 29.89 in 0.8 mi East 4.6 mph - 0.01 in Rain Light Rain
2:11 PM 33.8 °F 30.8 °F 33.8 °F 100% 29.89 in 1.0 mi East 3.5 mph - 0.03 in Rain Light Rain
2:42 PM 33.8 °F 29.6 °F 33.8 °F 100% 29.88 in 0.8 mi East 4.6 mph - 0.08 in Snow Light Snow
2:52 PM 33.1 °F 28.7 °F 33.1 °F 100% 29.90 in 0.8 mi ENE 4.6 mph - 0.10 in Snow Light Snow
3:52 PM 33.1 °F 30.0 °F 32.0 °F 96% 29.88 in 0.5 mi NE 3.5 mph - 0.06 in Fog , Snow Light Snow
4:29 PM 32.0 °F 28.7 °F 32.0 °F 100% 29.86 in 0.2 mi NNE 3.5 mph - 0.02 in Fog , Snow Snow
4:44 PM 32.0 °F - 32.0 °F 100% 29.86 in 0.2 mi Calm Calm - 0.02 in Fog , Snow Snow
4:52 PM 32.0 °F - 32.0 °F 100% 29.88 in 0.2 mi Calm Calm - 0.03 in Fog , Snow Light Snow
4:59 PM 32.0 °F 28.7 °F 32.0 °F 100% 29.86 in 0.5 mi NE 3.5 mph - 0.00 in Fog , Snow Light Snow
5:12 PM 32.0 °F 28.7 °F 32.0 °F 100% 29.86 in 0.5 mi NNE 3.5 mph - 0.00 in Fog , Snow Light Snow
5:38 PM 32.0 °F 27.5 °F 32.0 °F 100% 29.86 in 1.2 mi North 4.6 mph - 0.02 in Snow Light Snow
5:52 PM 32.0 °F 27.5 °F 32.0 °F 100% 29.89 in 1.2 mi NNW 4.6 mph - 0.03 in Snow Light Snow
6:44 PM 32.0 °F 26.4 °F 32.0 °F 100% 29.88 in 2.0 mi NNW 5.8 mph - 0.02 in Snow Light Snow
6:52 PM 32.0 °F 25.6 °F 32.0 °F 100% 29.91 in 2.5 mi NNW 6.9 mph - 0.03 in Snow Light Snow
7:19 PM 32.0 °F 24.8 °F 32.0 °F 100% 29.89 in 2.5 mi NNW 8.1 mph - 0.01 in Snow Light Snow
7:32 PM 32.0 °F 24.8 °F 32.0 °F 100% 29.88 in 3.0 mi NNW 8.1 mph - 0.02 in Snow Light Snow
7:52 PM 32.0 °F 24.8 °F 32.0 °F 100% 29.91 in 3.0 mi NNW 8.1 mph - 0.03 in Snow Light Snow
8:03 PM 33.8 °F 27.0 °F 32.0 °F 93% 29.89 in 3.0 mi NNW 8.1 mph - 0.00 in Snow Light Snow
8:16 PM 33.8 °F 27.0 °F 32.0 °F 93% 29.89 in 3.0 mi NW 8.1 mph - 0.01 in Snow Light Snow
8:52 PM 33.1 °F 23.4 °F 32.0 °F 96% 29.93 in 3.0 mi NNW 13.8 mph - 0.02 in Snow Light Snow
9:05 PM 33.8 °F 23.9 °F 32.0 °F 93% 29.91 in 2.5 mi NNW 15.0 mph - 0.00 in Snow Light Snow
9:52 PM 33.1 °F 22.6 °F 30.9 °F 92% 29.95 in 2.5 mi NNW 16.1 mph - 0.02 in Snow Light Snow
10:52 PM 30.9 °F 18.4 °F 30.0 °F 96% 29.96 in 2.0 mi NNW 20.7 mph - 0.00 in Snow Light Snow
11:00 PM 30.2 °F 17.1 °F 28.4 °F 93% 29.93 in 2.5 mi NNW 21.9 mph - 0.00 in Snow Light Snow
11:09 PM 30.2 °F 17.4 °F 28.4 °F 93% 29.94 in 4.0 mi NNW 20.7 mph - 0.00 in Snow Light Snow
11:52 PM 28.9 °F 15.4 °F 27.0 °F 92% 29.98 in 2.5 mi NNW 21.9 mph - 0.00 in Snow Light Snow